Weather History for Merrill, WI

Change the Weather History Date:

Monday, September 16, 2013

  Actual Average Record
Temperature  
Mean Temperature 45 °F -  
Max Temperature 61 °F 66 °F 90 °F (1948)
Min Temperature 29 °F 42 °F 29 °F (2013)
Degree Days  
Heating Degree Days 20    
Moisture  
Dew Point 37 °F    
Average Humidity 77    
Maximum Humidity 100    
Minimum Humidity 42    
Precipitation  
Precipitation 0.00 in - - ()
Sea Level Pressure  
Sea Level Pressure 30.37 in    
Wind  
Wind Speed 1 mph (SE)    
Max Wind Speed 8 mph    
Max Gust Speed -    
Visibility 9 miles    
Events Fog    
Averages and records for this station are not official NWS values.
T = Trace of Precipitation, MM = Missing Value Source: NWS Daily Summary

Daily Weather History Graph

Daily Weather History Graph

Search for Another Location

Airport:

Trip Planner

Search our weather history database for the weather conditions in past years. The results will help you decide how hot, cold, wet, or windy it might be!

Date:

Astronomy

Sep. 16, 2013 Rise Set
Actual Time 6:38 AM CDT 7:07 PM CDT
Civil Twilight 6:09 AM CDT 7:36 PM CDT
Nautical Twilight 5:34 AM CDT 8:11 PM CDT
Astronomical Twilight 4:58 AM CDT 8:47 PM CDT
Moon 5:21 PM CDT (9/16) 3:18 AM CDT (9/16)
Length of Visible Light 13h 27m
Length of Day
12h 28m
Waxing Gibbous, 90% of the Moon is Illuminated
Sep 16
Waxing Gibbous
Sep 19
Full
Sep 26
Last Quarter
Oct 4
New
Oct 11
First Quarter

Hourly Weather History & Observations

Time (CDT) Temp. Windchill Dew Point Humidity Pressure Visibility Wind Dir Wind Speed Gust Speed Precip Events Conditions
12:15 AM 36.1 °F - 35.4 °F 97% 30.32 in 10.0 mi Calm Calm - N/A   Clear
12:35 AM 36.0 °F - 35.8 °F 99% 30.32 in 2.5 mi Calm Calm - N/A   Clear
12:55 AM 34.2 °F - 34.2 °F 100% 30.33 in 1.0 mi Calm Calm - N/A   Mist
1:15 AM 33.8 °F - 33.6 °F 99% 30.34 in 1.5 mi Calm Calm - N/A   Mist
1:35 AM 33.3 °F - 32.7 °F 98% 30.34 in 10.0 mi Calm Calm - N/A   Clear
1:55 AM 33.8 °F - 33.1 °F 97% 30.34 in 5.0 mi Calm Calm - N/A   Clear
2:15 AM 32.0 °F - 31.6 °F 99% 30.34 in 7.0 mi Calm Calm - N/A   Clear
2:35 AM 31.6 °F - 31.3 °F 99% 30.35 in 10.0 mi Calm Calm - N/A   Clear
2:55 AM 32.0 °F - 31.6 °F 99% 30.35 in 10.0 mi Calm Calm - N/A   Clear
3:15 AM 31.5 °F - 31.1 °F 99% 30.35 in 7.0 mi Calm Calm - N/A   Clear
3:35 AM 32.0 °F - 31.6 °F 99% 30.36 in 7.0 mi Calm Calm - N/A   Clear
3:55 AM 30.7 °F - 30.0 °F 97% 30.37 in 10.0 mi Calm Calm - N/A   Clear
4:15 AM 31.1 °F - 31.1 °F 100% 30.37 in 0.2 mi Calm Calm - N/A Fog Light Freezing Fog
4:35 AM 29.3 °F - 29.1 °F 99% 30.37 in 10.0 mi Calm Calm - N/A   Clear
4:55 AM 30.6 °F - 30.4 °F 99% 30.37 in 2.0 mi Calm Calm - N/A   Clear
5:15 AM 30.2 °F - 30.2 °F 100% 30.38 in 2.5 mi Calm Calm - N/A   Clear
5:35 AM 30.2 °F - 30.2 °F 100% 30.39 in 1.8 mi Calm Calm - N/A   Mist
5:55 AM 29.5 °F - 29.3 °F 99% 30.39 in 10.0 mi Calm Calm - N/A   Clear
6:15 AM 30.0 °F - 29.7 °F 99% 30.39 in 10.0 mi Calm Calm - N/A   Clear
6:35 AM 29.5 °F - 28.9 °F 98% 30.40 in 10.0 mi Calm Calm - N/A   Clear
6:55 AM 30.0 °F - 28.9 °F 96% 30.41 in 10.0 mi Calm Calm - N/A   Clear
7:15 AM 30.2 °F - 29.7 °F 98% 30.41 in 10.0 mi Calm Calm - N/A   Clear
7:35 AM 32.2 °F - 32.0 °F 99% 30.41 in 10.0 mi Calm Calm - N/A   Clear
7:55 AM 34.2 °F - 33.4 °F 97% 30.42 in 10.0 mi Calm Calm - N/A   Clear
8:15 AM 36.7 °F - 35.6 °F 96% 30.42 in 10.0 mi Calm Calm - N/A   Clear
8:35 AM 39.2 °F - 37.6 °F 94% 30.42 in 10.0 mi Calm Calm - N/A   Clear
8:55 AM 41.4 °F - 38.5 °F 89% 30.43 in 10.0 mi Calm Calm - N/A   Clear
9:15 AM 43.9 °F - 40.3 °F 87% 30.44 in 10.0 mi Calm Calm - N/A   Clear
9:35 AM 47.1 °F - 41.2 °F 80% 30.44 in 10.0 mi Calm Calm - N/A   Clear
9:55 AM 48.9 °F - 40.6 °F 73% 30.44 in 10.0 mi Calm Calm - N/A   Clear
10:15 AM 50.7 °F - 40.6 °F 68% 30.44 in 10.0 mi East 4.6 mph - N/A   Scattered Clouds
10:35 AM 51.8 °F - 40.3 °F 65% 30.44 in 10.0 mi Calm Calm - N/A   Scattered Clouds
10:55 AM 52.3 °F - 40.5 °F 64% 30.44 in 10.0 mi SE 8.1 mph - N/A   Scattered Clouds
11:15 AM 52.5 °F - 39.9 °F 62% 30.44 in 10.0 mi Calm Calm - N/A   Scattered Clouds
11:35 AM 53.4 °F - 38.8 °F 58% 30.43 in 10.0 mi ENE 3.5 mph - N/A   Clear
11:55 AM 54.7 °F - 40.1 °F 58% 30.42 in 10.0 mi ESE 5.8 mph - N/A   Clear
12:15 PM 55.8 °F - 39.6 °F 55% 30.42 in 10.0 mi Calm Calm - N/A   Clear
12:35 PM 56.5 °F - 39.2 °F 52% 30.42 in 10.0 mi Calm Calm - N/A   Clear
12:55 PM 57.4 °F - 39.9 °F 52% 30.42 in 10.0 mi ESE 4.6 mph - N/A   Clear
1:15 PM 57.7 °F - 37.4 °F 47% 30.41 in 10.0 mi Calm Calm - N/A   Clear
1:35 PM 58.5 °F - 36.5 °F 44% 30.40 in 10.0 mi ENE 3.5 mph - N/A   Clear
1:55 PM 58.6 °F - 36.9 °F 44% 30.40 in 10.0 mi Calm Calm - N/A   Clear
2:15 PM 59.0 °F - 36.7 °F 43% 30.39 in 10.0 mi South 4.6 mph - N/A   Clear
2:35 PM 59.9 °F - 37.4 °F 43% 30.39 in 10.0 mi South 4.6 mph - N/A   Clear
2:55 PM 60.6 °F - 37.6 °F 42% 30.38 in 10.0 mi Calm Calm - N/A   Clear
3:15 PM 61.7 °F - 39.0 °F 43% 30.38 in 10.0 mi Calm Calm - N/A   Clear
3:35 PM 61.3 °F - 38.7 °F 43% 30.37 in 10.0 mi SSE 3.5 mph - N/A   Clear
3:55 PM 60.8 °F - 38.7 °F 44% 30.37 in 10.0 mi Calm Calm - N/A   Clear
4:15 PM 61.3 °F - 38.1 °F 42% 30.36 in 10.0 mi Calm Calm - N/A   Clear
4:35 PM 61.0 °F - 39.2 °F 45% 30.36 in 10.0 mi Calm Calm - N/A   Clear
4:55 PM 61.2 °F - 40.6 °F 47% 30.35 in 10.0 mi Calm Calm - N/A   Clear
5:15 PM 60.8 °F - 39.6 °F 46% 30.35 in 10.0 mi Calm Calm - N/A   Clear
5:35 PM 59.9 °F - 40.3 °F 48% 30.34 in 10.0 mi South 4.6 mph - N/A   Clear
5:55 PM 59.5 °F - 40.3 °F 49% 30.34 in 10.0 mi South 4.6 mph - N/A   Clear
6:15 PM 58.3 °F - 40.8 °F 52% 30.34 in 10.0 mi Calm Calm - N/A   Clear
6:35 PM 57.4 °F - 40.8 °F 54% 30.34 in 10.0 mi Calm Calm - N/A   Clear
6:55 PM 56.3 °F - 40.1 °F 55% 30.33 in 10.0 mi South 3.5 mph - N/A   Clear
7:15 PM 54.0 °F - 41.0 °F 62% 30.33 in 10.0 mi Calm Calm - N/A   Clear
7:35 PM 50.0 °F - 42.8 °F 76% 30.33 in 10.0 mi Calm Calm - N/A   Clear
7:55 PM 47.1 °F - 42.1 °F 83% 30.34 in 10.0 mi Calm Calm - N/A   Clear
8:15 PM 45.5 °F - 42.4 °F 89% 30.34 in 10.0 mi Calm Calm - N/A   Clear
8:35 PM 44.6 °F - 41.4 °F 88% 30.34 in 10.0 mi Calm Calm - N/A   Clear
8:55 PM 44.8 °F - 41.9 °F 90% 30.34 in 10.0 mi Calm Calm - N/A   Clear
9:15 PM 42.6 °F - 39.9 °F 90% 30.34 in 10.0 mi Calm Calm - N/A   Clear
9:35 PM 41.9 °F - 39.0 °F 90% 30.34 in 10.0 mi Calm Calm - N/A   Clear
9:55 PM 42.4 °F - 39.7 °F 90% 30.34 in 10.0 mi Calm Calm - N/A   Clear
10:15 PM 41.9 °F 40.0 °F 38.7 °F 88% 30.34 in 10.0 mi SE 3.5 mph - N/A   Clear
10:35 PM 43.9 °F 42.3 °F 39.7 °F 85% 30.34 in 10.0 mi SSE 3.5 mph - N/A   Clear
10:55 PM 42.8 °F - 39.4 °F 88% 30.35 in 10.0 mi Calm Calm - N/A   Clear
11:15 PM 41.2 °F - 38.7 °F 91% 30.35 in 10.0 mi Calm Calm - N/A   Clear
11:35 PM 37.2 °F - 35.1 °F 92% 30.35 in 10.0 mi Calm Calm - N/A   Clear
11:55 PM 39.4 °F - 38.1 °F 95% 30.35 in 10.0 mi Calm Calm - N/A   Clear